Regional Weather Roundup
Issued by NWS Pendleton, OR

Home | Current Version | Previous Version | Text Only | Print | Product List | Glossary On
Versions: 1 2 3 4 5 6 7 8 9 10 11 12 13 14 15 16 17 18 19 20 21 22 23 24 25 26 27 28 29 30 31 32 33 34 35 36 37 38 39 40 41 42 43 44 45 46 47 48 49 50
000
ASUS46 KPDT 012310
RWRPDT
PENDLETON REGIONAL WEATHER ROUNDUP
NATIONAL WEATHER SERVICE PENDLETON OREGON
400 PM PDT FRI AUG 1 2014

NOTE: FAIR INDICATES FEW OR NO CLOUDS BELOW 12,000 FEET WITH NO
SIGNIFICANT WEATHER AND/OR OBSTRUCTIONS TO VISIBILITY.

# INDICATES UNOFFICIAL STATION AND DATA

WAZ520-020010-
EAST SLOPES OF WASHINGTON CASCADES

CITY            SKY/WX      TMP DP  RH  WIND    PRES   REMARKS
#BUMPING DAM    N/A         83  N/A N/A CALM    N/A
#CLE ELUM HS    N/A         82  48  31  W5      29.93F
#CLE ELUM LAKE  N/A         83  53  36  CALM    29.84F
#CLIFFDEL 2NW   N/A         85  46  26  W7      N/A
#EASTON DOT     N/A         73  40  30  N1      N/A
#ELK HTS DOT    N/A         89  89  100 W9      N/A
#GLENWOOD       N/A         93  62  36  CALM    29.82F HX 94
#MANASTASH CYN  N/A         86  48  27  N1      30.01F
#NELSON 3SW     N/A         75  61  62  CALM    30.06F
#NILE           N/A         90  47  23  W6      29.15F HX 87
#PEOH POINT     N/A         79  48  34  SW5     N/A
#RONALD 2NW     N/A         82  51  34  NW1     29.91F
#SOUTH BLEWITT  N/A         87  53  31  CALM    N/A
#TROUT LAKE 1NE N/A         92  55  29  CALM    29.82F HX 90
$$

WAZ521-020010-
SIMCOE HIGHLANDS

CITY            SKY/WX      TMP DP  RH  WIND    PRES   REMARKS
#BICKLETON HS   N/A         88  39  18  NE12    30.06F
#SATUS PASS DOT N/A         92  45  20  CALM    N/A    HX 88
#CENTERVILLE 4W N/A         97  53  23  SW3     29.71F HX 95
#CENTERVILLE 1SWN/A         96  51  22  E6      29.78F HX 93
#GOLDENDALE 1NE N/A         96  43  16  CALM    N/A    HX 92
#GOLDENDALE 1S  N/A         98  53  22  CALM    29.90F HX 96
#GOODNOE HILLS  N/A         101 45  15  SE6     29.83F HX 97
#LYLE 6NE       N/A         92  58  32  SW7     29.80F HX 91
$$

WAZ026-020010-
KITTITAS VALLEY

CITY            SKY/WX      TMP DP  RH  WIND    PRES   REMARKS
ELLENSBURG AP   MOCLDY      98  48  18  N5      29.96F HX 94
#ELLENSBURG CWU N/A         95  52  24  N2      29.81F HX 92
#ELLENSBURG 3NE N/A         87  62  43  E3      29.96F
#ELLENSBURG 1E  N/A         90  61  38  CALM    N/A    HX 90
#KITTITAS 3S    N/A         85  68  57  CALM    29.83F
#RYEGRASS DOT   N/A         88  49  26  E7      N/A
#THORP 6N       N/A         85  45  25  NW17G26 29.88S
$$

WAZ027-020010-
YAKIMA VALLEY

CITY            SKY/WX      TMP DP  RH  WIND    PRES   REMARKS
YAKIMA AIRPORT  PTCLDY      97  47  18  CALM    29.91F HX 93
YAKIMA-VAGABOND PTCLDY      96  43  16  W7      29.93F HX 92
#DONALD 2NE     N/A         104 46  14  CALM    30.23F HX 100
#GRANDVIEW      N/A         94  56  28  NW1     29.85F HX 92
#MABTON         N/A         95  59  30  N3      29.87F HX 94
#MOXEE 2E       N/A         94  24   8  W3      29.79F HX 89
#NACHES 2SW     N/A         94  61  34  SE1     30.01S HX 94
#TERRACE HTS    N/A         96  54  25  SW2     29.80F HX 94
#TOPPENISH      N/A         93  55  28  CALM    29.76F HX 91
#WAPATO 4NE     N/A         102 46  15  CALM    30.23F HX 98
#WEST VALLEY    N/A         95  48  20  CALM    29.82F HX 91
#W YAKIMA       N/A         98  48  18  S1      29.83F HX 94
#WHITE SWAN 5E  N/A         92  57  31  N2      29.85F HX 91
#WILEY CITY 3W  N/A         90  39  17  CALM    29.93F HX 86
$$

WAZ028-020010-
LOWER COLUMBIA BASIN...WASHINGTON

CITY            SKY/WX      TMP DP  RH  WIND    PRES   REMARKS
HANFORD         MOSUNNY     102 40  12  N6      29.88S HX 97
PASCO           SUNNY       99  56  24  N7      29.85F HX 98
PROSSER AWOS    N/A         97  54  24  W3      29.89F HX 95
RICHLAND AWOS   SUNNY       100 43  14  CALM    29.86F HX 96
#BASIN CITY 5SW N/A         100 64  31  CALM    29.88F HX 103
#BENTON CITY    N/A         96  51  22  NE3     29.73F HX 93
#CONNELL 5N     N/A         101 46  16  E5      29.81F HX 97
#CONNELL 5NW    N/A         96  59  29  N2      29.78F HX 95
#ELTOPIA 6NW    N/A         99  61  29  NW3     28.87F HX 100
#KENNEWICK 3S   N/A         98  58  27  CALM    29.83F HX 98
#PASCO-BROADMOORN/A         102 42  13  E1      29.71F HX 97
#PATERSON       N/A         97  63  33  NE1     29.80F HX 99
#PROSSER DOT    N/A         100 40  13  E5      N/A    HX 95
#PROSSER        N/A         99  48  18  N5      29.82F HX 96
#SAGEMOOR 2W    N/A         92  74  56  CALM    29.69F HX 102
#TOUCHET 2S     N/A         99  59  27  NW5     29.78F HX 99
#WEST PASCO     N/A         99  58  26  N2      29.83F HX 99
$$

WAZ029-020010-
FOOTHILLS OF THE BLUES...WASHINGTON

CITY            SKY/WX      TMP DP  RH  WIND    PRES   REMARKS
WALLA WALLA AP  SUNNY       100 48  17  W9      29.89F HX 96
#COLLEGE PLACE  N/A         106 54  18  CALM    29.84F HX 105
#DAYTON SCHOOL  N/A         97  46  18  S2      29.89F HX 93
#DELANEY DOT    N/A         101 39  12  NW6     N/A    HX 96
#LOWDEN 2SE     N/A         100 54  22  W2      29.80F HX 98
#PLEASANT VIEW 1N/A         99  43  15  W5      29.83F HX 95
#PRESCOTT       N/A         101 51  19  CALM    29.77F HX 98
#SUDBURY        N/A         101 N/A N/A SW3     N/A
#WHITMAN COLLEGEN/A         98  53  22  SW6     29.85F HX 96
#WAITSBURG 8N   N/A         107 36   9  N1      29.74F HX 101
#WALLA WALLA 5E N/A         94  55  27  CALM    N/A    HX 92
#WALLA WALLA U  N/A         101 51  19  CALM    29.80F HX 98
#WHITMAN MISSIONN/A         99  58  26  SW3     29.81F HX 99
$$

WAZ030-020010-
BLUE MOUNTAINS...WASHINGTON

CITY            SKY/WX      TMP DP  RH  WIND    PRES   REMARKS
$$

ORZ009-041-WAZ024-020010-
COLUMBIA RIVER GORGE

CITY            SKY/WX      TMP DP  RH  WIND    PRES   REMARKS
HOOD RIVER AP   PTCLDY      90  63  41  CALM    29.88F HX 91
THE DALLES AP   PTCLDY      100 55  23  N12     29.82F HX 99
#ARLINGTON AIRPON/A         98  44  16  E8      N/A    HX 94
#ARLINGTON HS   N/A         100 44  15  CALM    29.70F HX 96
#CELILO DOT     N/A         103 66  30  N2      N/A    HX 108
#MARYHILL       N/A         102 44  14  SW3     N/A    HX 98
#MOSIER 1S      N/A         89  46  23  NW2     29.94S
#MURDOCK        N/A         94  61  34  NW6     29.82F HX 94
#RUFUS DOT      N/A         104 63  27  S3      N/A    HX 107

$$

ORZ510-020010-
NORTH CENTRAL OREGON

CITY            SKY/WX      TMP DP  RH  WIND    PRES   REMARKS
#CHENOWITH 1W   N/A         95  47  20  W7      N/A    HX 91
#COW CYN RST AREN/A         91  41  18  NE7     N/A    HX 87
#DUFUR 9E       N/A         92  46  21  E7      29.84F HX 88
#GRASS VALLEY 1SN/A         95  51  23  N1      29.82F HX 92
#KENT DOT       N/A         94  46  19  NW9     N/A    HX 90
#MAUPIN SCHOOL  N/A         99  45  16  CALM    29.89F HX 95
#MORO SCHOOL    N/A         96  58  28  SE2     29.95F HX 95
#SHANIKO 5WSW   N/A         91  45  20  W5      N/A    HX 87
#SHANIKO 4NW    N/A         88  38  17  N5      30.07F
#TYGH VALLEY 2NEN/A         98  53  22  N3      29.79F HX 96
#WAPANITIA AIRPON/A         97  48  19  W1      29.80F HX 94
#WASCO DOT      N/A         100 60  27  E6      N/A    HX 101
#WASCO 5NE      N/A         98  54  23  CALM    29.81F HX 96
$$

ORZ511-020010-
CENTRAL OREGON

CITY            SKY/WX      TMP DP  RH  WIND    PRES   REMARKS
BEND AIRPORT    N/A         N/A N/A N/A S7      30.04F
MADRAS AIRPORT  SUNNY       95  43  17  N6      29.99F HX 91
REDMOND AIRPORT PTCLDY      94  43  17  N9      30.01F HX 90
#BEND 6E        N/A         87  40  19  CALM    29.74R
#BEND 1SW       N/A         81  56  42  CALM    N/A
#BEND-AWBREY    N/A         91  49  24  CALM    29.82F HX 88
#BEND-KIM LN    N/A         92  50  24  CALM    30.02F HX 89
#CROOKED RVR RANN/A         91  52  27  NE3     29.78F HX 88
#CULVER         N/A         94  48  21  CALM    29.95F HX 91
#LAKE BILLY CHINN/A         95   8   4  N1      29.98F HX 90
#POWELL BUTTE 3EN/A         89  53  29  NW6     N/A
#POWELL BUTTE   N/A         88  53  30  N2      29.68F
#PRINEVILLE 3N  N/A         90  50  26  CALM    29.75F HX 87
#WARM SPRINGS   N/A         99  51  20  W1      29.89F HX 96


ORZ509-020010-
EAST SLOPES OF OREGON CASCADES

CITY            SKY/WX      TMP DP  RH  WIND    PRES   REMARKS
#BLUE BOX PASS  N/A         86  26  11  CALM    N/A
#CAMP SHERMAN   N/A         88  58  36  CALM    29.83S
#LA PINE DOT    N/A         86  41  21  NE3     N/A
#LA PINE 4NW    N/A         86  49  28  CALM    29.86F
#LAVA BUTTE DOT N/A         82  48  31  NE6     N/A
#SISTERS AIRPOR N/A         88  55  33  VRB1    30.01F
#SISTERS ODOT   N/A         88  N/A N/A NW1     N/A
#SISTERS 3N     N/A         87  50  28  CALM    N/A
#SUNRIVER       N/A         89  43  20  S2      29.75S
#SUNRIVER AP    N/A         86  49  28  E7G26   29.81F
#SUTTLE LK DOT  N/A         80  54  41  SW8     N/A
#TUMALO 3W      N/A         87  47  25  E2      29.71F
#WANOGA BUTTE D N/A         77  40  26  E1      N/A

$$

ORZ044-020010-
LOWER COLUMBIA BASIN...OREGON

CITY            SKY/WX      TMP DP  RH  WIND    PRES   REMARKS
HERMISTON       PTCLDY      100 48  17  VRB3    29.85F HX 96
#BOARDMAN SCHOOLN/A         98  50  20  NW1     29.81F HX 95
#BOARDMAN 3W    N/A         98  60  29  E3      29.53F HX 98
#BOARDMAN 8SW   N/A         98  56  25  N5      29.81F HX 97
#IONE SCHOOL    N/A         97  51  21  NW5     29.87F HX 94
#IRRIGON 4NW    N/A         101 53  20  NW3     N/A    HX 99
#UMATILLA SCHOOLN/A         104 67  31  N6      29.92F HX 110
#UMATILLA       N/A         101 54  21  N3      29.81F HX 99
$$

ORZ507-020010-
NORTHERN FOOTHILLS OF THE BLUES

CITY            SKY/WX      TMP DP  RH  WIND    PRES   REMARKS
PENDLETON AIRPT PTCLDY      99  47  17  N13     29.90F HX 95
#ADAMS 3WNW     N/A         98  49  19  CALM    29.78F HX 95
#ATHENA         N/A         97  49  20  CALM    29.82F HX 94
#HELIX SCHOOL   N/A         95  51  23  N7      29.80F HX 92
#HELIX 3N       N/A         95  49  21  N9      29.91F HX 92
#HELIX 6SW      N/A         97  51  21  W13     29.91F HX 94
#HOLDMAN 5SE    N/A         98  49  19  W6      29.91F HX 95
#HOLDMAN 6E     N/A         98  49  19  CALM    29.64F HX 95
#M-F FERNDALE   N/A         104 60  24  CALM    29.86F HX 105
#M-FREEWATER 5SEN/A         97  61  31  W1      29.89F HX 98
#PDT AQUATIC CTRN/A         98  54  23  W3      29.80F HX 96
#PDT SUNRIDGE   N/A         100 52  20  W7      29.88F HX 97
#PENDLETON 7NW  N/A         95  61  33  W2      32.38S HX 96
#PILOT ROCK     N/A         94  52  24  N1      29.93F HX 91
#TUTUILLA       N/A         98  54  23  W1      29.76F HX 96
#UMAPINE 2E     N/A         99  58  26  W1      29.82F HX 99
#WESTON SCHOOL  N/A         95  48  20  E2      29.89F HX 91

$$

ORZ508-020010-
SOUTHERN FOOTHILLS OF THE BLUES

CITY            SKY/WX      TMP DP  RH  WIND    PRES   REMARKS
#AJAX           N/A         96  46  18  E2      29.89F HX 92
#CONDON SCHOOL  N/A         93  46  20  CALM    29.96F HX 89
#CONDON 5W      N/A         90  41  18  W2      30.01F HX 86
#FOSSIL SCHOOL  N/A         93  47  21  NE2     29.96F HX 89
#HEPPNER 4NE    N/A         90  49  25  N8      29.80F HX 87
#LEXINGTON 2SE  N/A         96  53  24  N12     29.88S HX 94
#MIKKALO        N/A         97  48  19  NE2     29.96F HX 94
#OLEX 4N        N/A         96  48  20  N3      29.87F HX 93
#RUGGS 5NE      N/A         95  43  17  NW1     30.17F HX 91
#RUGGS 2SW      N/A         92  45  20  NW6     29.84F HX 88

$$

ORZ502-503-020010-
BLUE MOUNTAINS

CITY            SKY/WX      TMP DP  RH  WIND    PRES   REMARKS
MEACHAM         PTCLDY      89  44  21  CALM    30.07F
#BATTLE MTN DOT N/A         86  60  42  N2      N/A
#HARDMAN 10S    N/A         84  42  23  CALM    30.16S
#HEPPNER 15SE   N/A         85  48  28  NW5     30.02F
#LADD CYN SMT   N/A         84  48  29  W7      N/A
#LADD CREEK ODOTN/A         84  57  40  NE3     N/A
#LONG CREEK HS  N/A         89  41  19  NE6     29.99F
#N POWDER DOT   N/A         93  55  28  CALM    N/A    HX 91
#PIKES PEAK     N/A         88  52  29  N1      27.99S
#TOLLGATE       N/A         80  43  27  N2      30.09S
#TOLLGATE 9W    N/A         89  44  21  SE5     N/A
#TROY SCHOOL    N/A         94  54  26  CALM    29.68F HX 92
#UKIAH          N/A         91  49  24  CALM    29.85F HX 88
#WESTON 4E      N/A         91  50  25  CALM    29.78S HX 88
$$

ORZ505-020010-
JOHN DAY BASIN

CITY            SKY/WX      TMP DP  RH  WIND    PRES   REMARKS
JOHN DAY        PTCLDY      90  43  20  E5      30.05F HX 86
#JOHN DAY KJDY  N/A         94  70  46  CALM    30.14R HX 100
#MONUMENT HS    N/A         96  47  19  CALM    29.67F HX 92
#MT. VERNON 5SE N/A         86  44  23  CALM    30.03S
#WINLOCK        N/A         95  45  18  N3      30.10F HX 91
$$

ORZ506-020010-
OCHOCO AND JOHN DAY HIGHLANDS

CITY            SKY/WX      TMP DP  RH  WIND    PRES   REMARKS
#BUCK CREEK DOT N/A         90  53  28  NE7     N/A    HX 88
#HORSE RIDGE DO N/A         88  39  18  W3      N/A
#KEYES SMT DOT  N/A         88  44  22  CALM    N/A
#PINE MTN OBS   N/A         76  41  28  CALM    N/A
#SENECA 9NW     N/A         83  42  24  CALM    29.81F
$$

ORZ049-020010-
GRANDE RONDE VALLEY

CITY            SKY/WX      TMP DP  RH  WIND    PRES   REMARKS
LA GRANDE       PTCLDY      88  48  25  CALM    30.01F
#COVE           N/A         89  54  31  CALM    29.94F
#COVE SCHOOL    N/A         91  50  25  CALM    30.00F HX 88
#COVE 6NW       N/A         86  55  35  CALM    29.92F
#ELGIN 3N       N/A         87  40  19  E16     29.84
#ELGIN 1E       N/A         92  50  24  CALM    N/A    HX 89
#IMBLER SCHOOL  N/A         87  52  30  CALM    29.97F
#ISLAND CITY 4N N/A         87  55  34  CALM    29.83F
#LADD CYN DOT   N/A         86  55  35  NW2     N/A
#UNION 1S       N/A         87  56  35  W2      29.78F
$$

ORZ050-020010-
WALLOWA COUNTY

CITY            SKY/WX      TMP DP  RH  WIND    PRES   REMARKS
#ENTERPRISE AP  N/A         88  41  19  SW3     30.03F
#ENTERPRISE HS  N/A         88  51  28  S1      30.07F
#IMNAHA SCHOOL  N/A         96  35  12  N6      29.88F HX 91
#JOSEPH 3N      N/A         84  52  33  SW5     30.12F
#JOSEPH 3W      N/A         86  44  23  CALM    29.98F
#LOSTINE        N/A         89  53  29  CALM    29.70F
#MT HOWARD 8000 N/A         68  41  37  N2      30.42F
#PROMISE 1S     N/A         85  52  32  W1      29.99F
#SHEEP RDG 7000 N/A         68  40  36  CALM    29.89F
#WALLOWA SCHOOL N/A         89  53  29  CALM    30.76F



$$



USA.gov is the U.S. government's official web portal to all federal, state and local government web resources and services.